TimeCDT,TemperatureF,Dew PointF,Humidity,Sea Level PressureIn,VisibilityMPH,Wind Direction,Wind SpeedMPH,Gust SpeedMPH,PrecipitationIn,Events,Conditions,WindDirDegrees,DateUTC
12:15 AM,53.6,53.6,100,29.94,0.2,NE,3.5,-,N/A,,Drizzle,40,2013-05-09 05:15:00
12:35 AM,53.6,53.6,100,29.94,0.2,NNE,5.8,-,N/A,,Drizzle,30,2013-05-09 05:35:00
1:15 AM,51.8,51.8,100,29.93,0.2,NNE,5.8,-,N/A,,Drizzle,20,2013-05-09 06:15:00
1:35 AM,53.6,53.6,100,29.93,0.2,North,5.8,-,N/A,,Drizzle,360,2013-05-09 06:35:00
1:55 AM,53.6,53.6,100,29.93,0.2,ESE,5.8,-,N/A,,Drizzle,120,2013-05-09 06:55:00
2:35 AM,55.4,55.4,100,29.92,0.2,ENE,4.6,-,N/A,,Drizzle,60,2013-05-09 07:35:00
2:55 AM,55.4,55.4,100,29.92,0.2,NE,3.5,-,N/A,,Drizzle,40,2013-05-09 07:55:00
3:15 AM,53.6,53.6,100,29.91,0.2,East,4.6,-,N/A,,Drizzle,80,2013-05-09 08:15:00
3:35 AM,53.6,53.6,100,29.90,0.2,NNE,4.6,-,N/A,,Drizzle,30,2013-05-09 08:35:00
3:55 AM,55.4,55.4,100,29.90,0.2,ENE,6.9,-,N/A,,Drizzle,60,2013-05-09 08:55:00
4:35 AM,53.6,53.6,100,29.89,0.2,North,6.9,-,N/A,,Heavy Drizzle,360,2013-05-09 09:35:00
5:15 AM,55.4,55.4,100,29.89,0.2,North,4.6,-,N/A,,Heavy Drizzle,350,2013-05-09 10:15:00
5:35 AM,55.4,55.4,100,29.89,0.2,North,5.8,-,N/A,,Heavy Drizzle,350,2013-05-09 10:35:00
5:55 AM,55.4,55.4,100,29.89,0.2,North,8.1,-,N/A,,Heavy Drizzle,360,2013-05-09 10:55:00
6:55 AM,55.4,55.4,100,29.91,0.2,North,8.1,-,N/A,,Drizzle,360,2013-05-09 11:55:00
7:15 AM,55.4,55.4,100,29.91,0.8,North,8.1,-,N/A,,Light Drizzle,10,2013-05-09 12:15:00
7:55 AM,57.2,57.2,100,29.92,1.8,NE,8.1,-,N/A,,Light Drizzle,40,2013-05-09 12:55:00
8:15 AM,55.4,55.4,100,29.92,1.5,NNE,8.1,-,N/A,,Light Drizzle,20,2013-05-09 13:15:00
8:35 AM,57.2,57.2,100,29.91,1.8,NNE,6.9,-,N/A,,Light Drizzle,20,2013-05-09 13:35:00
9:15 AM,57.2,57.2,100,29.91,3.0,North,10.4,-,N/A,,Light Drizzle,360,2013-05-09 14:15:00
9:35 AM,57.2,57.2,100,29.91,6.0,North,6.9,-,N/A,,Light Drizzle,360,2013-05-09 14:35:00
10:15 AM,59.0,59.0,100,29.92,4.0,NNE,9.2,-,N/A,,Overcast,30,2013-05-09 15:15:00
10:35 AM,59.0,59.0,100,29.92,5.0,North,10.4,-,N/A,,Overcast,10,2013-05-09 15:35:00
10:55 AM,60.8,60.8,100,29.92,8.0,NNE,9.2,-,N/A,,Overcast,20,2013-05-09 15:55:00
11:15 AM,60.8,59.0,94,29.92,9.0,NE,8.1,-,N/A,,Mostly Cloudy,40,2013-05-09 16:15:00
11:35 AM,60.8,59.0,94,29.92,10.0,NNE,12.7,-,N/A,,Mostly Cloudy,30,2013-05-09 16:35:00
12:15 PM,60.8,59.0,94,29.92,10.0,NE,13.8,-,N/A,,Mostly Cloudy,40,2013-05-09 17:15:00
12:35 PM,62.6,59.0,88,29.92,10.0,NE,11.5,-,N/A,,Overcast,40,2013-05-09 17:35:00
12:55 PM,60.8,59.0,94,29.92,10.0,NE,10.4,-,N/A,,Overcast,40,2013-05-09 17:55:00
1:15 PM,64.4,57.2,77,29.92,10.0,NE,16.1,-,N/A,,Mostly Cloudy,50,2013-05-09 18:15:00
1:35 PM,62.6,57.2,82,29.92,10.0,NNE,16.1,24.2,N/A,,Mostly Cloudy,20,2013-05-09 18:35:00
1:55 PM,60.8,59.0,94,29.92,10.0,North,17.3,26.5,N/A,,Overcast,360,2013-05-09 18:55:00
2:35 PM,60.8,59.0,94,29.92,-9999.0,North,18.4,24.2,N/A,,Overcast,10,2013-05-09 19:35:00
2:55 PM,60.8,57.2,88,29.92,10.0,NNE,16.1,24.2,N/A,,Mostly Cloudy,20,2013-05-09 19:55:00
3:15 PM,60.8,57.2,88,29.92,10.0,NNE,21.9,-,N/A,,Overcast,20,2013-05-09 20:15:00
3:35 PM,59.0,57.2,94,29.92,10.0,NNE,18.4,-,N/A,,Overcast,20,2013-05-09 20:35:00
3:55 PM,59.0,57.2,94,29.92,9.0,NNE,17.3,26.5,N/A,,Overcast,30,2013-05-09 20:55:00
4:15 PM,59.0,55.4,88,29.92,10.0,NNE,19.6,27.6,N/A,,Overcast,30,2013-05-09 21:15:00
4:35 PM,59.0,55.4,88,29.92,10.0,North,20.7,-,N/A,,Overcast,10,2013-05-09 21:35:00
4:55 PM,59.0,55.4,88,29.92,9.0,NE,15.0,25.3,N/A,,Overcast,40,2013-05-09 21:55:00
5:15 PM,60.8,55.4,82,29.92,10.0,NNE,20.7,26.5,N/A,,Mostly Cloudy,30,2013-05-09 22:15:00
5:35 PM,60.8,55.4,82,29.93,10.0,NNE,17.3,25.3,N/A,,Mostly Cloudy,30,2013-05-09 22:35:00
5:55 PM,59.0,55.4,88,29.93,10.0,NNE,15.0,21.9,N/A,,Mostly Cloudy,30,2013-05-09 22:55:00
6:15 PM,59.0,55.4,88,29.93,10.0,NNE,15.0,-,N/A,,Overcast,20,2013-05-09 23:15:00
6:35 PM,59.0,55.4,88,29.95,10.0,North,11.5,-,N/A,,Overcast,10,2013-05-09 23:35:00
6:55 PM,59.0,55.4,88,29.95,10.0,North,19.6,-,N/A,,Overcast,10,2013-05-09 23:55:00
7:15 PM,59.0,55.4,88,29.95,10.0,NNE,15.0,21.9,N/A,,Overcast,20,2013-05-10 00:15:00
7:35 PM,59.0,55.4,88,29.96,10.0,NNE,15.0,21.9,N/A,,Overcast,20,2013-05-10 00:35:00
7:55 PM,57.2,53.6,88,29.96,10.0,North,23.0,-,N/A,,Overcast,10,2013-05-10 00:55:00
8:15 PM,55.4,53.6,94,29.97,10.0,NNE,17.3,26.5,N/A,,Overcast,20,2013-05-10 01:15:00
8:35 PM,55.4,51.8,88,29.97,10.0,NNE,20.7,26.5,N/A,,Overcast,20,2013-05-10 01:35:00
8:55 PM,53.6,51.8,94,29.98,10.0,NNE,17.3,25.3,N/A,,Overcast,20,2013-05-10 01:55:00
9:15 PM,53.6,51.8,94,29.98,10.0,North,19.6,-,N/A,,Overcast,10,2013-05-10 02:15:00
9:35 PM,53.6,51.8,94,29.99,10.0,North,18.4,25.3,N/A,,Overcast,10,2013-05-10 02:35:00
9:55 PM,51.8,50.0,94,29.99,10.0,NNE,23.0,29.9,N/A,,Overcast,20,2013-05-10 02:55:00
10:15 PM,51.8,50.0,94,29.99,10.0,NNE,23.0,28.8,N/A,,Overcast,20,2013-05-10 03:15:00
10:35 PM,51.8,50.0,94,29.99,10.0,NNE,19.6,27.6,N/A,,Overcast,20,2013-05-10 03:35:00
10:55 PM,51.8,48.2,88,30.00,10.0,NNE,20.7,-,N/A,,Overcast,20,2013-05-10 03:55:00
11:15 PM,50.0,48.2,94,30.00,10.0,NNE,20.7,26.5,N/A,,Overcast,20,2013-05-10 04:15:00
11:35 PM,50.0,48.2,94,30.01,10.0,NNE,17.3,-,N/A,,Overcast,20,2013-05-10 04:35:00